Location: Peterborough
(44.3091°N, 78.3197°W)
Time: 07:32:45
(UTC-04:00)

A-11 Canister half - Pass Details

Date: 29 March 2023
Orbit: 1513 x 1686 km, 47.2° (Epoch: 04 June)

Event Time Altitude Azimuth Distance (km) Brightness Sun altitude
Rises 23:31:34 0° 263° (W) 4,820 11.9 -36.5°
Reaches altitude 10° 23:34:39 10° 265° (W) 3,856 11.3 -36.8°
Maximum altitude 23:44:37 78° 352° (N) 1,700 9.1 -37.7°
Enters shadow 23:46:40 61° 59° (ENE) 1,854 9.2 -37.9°
